TimeEST,TemperatureF,Dew PointF,Humidity,Sea Level PressureIn,VisibilityMPH,Wind Direction,Wind SpeedMPH,Gust SpeedMPH,PrecipitationIn,Events,Conditions,WindDirDegrees,DateUTC
12:23 AM,19.4,10.4,68,30.09,10.0,West,9.2,-,N/A,,Mostly Cloudy,280,2013-02-04 05:23:00
12:49 AM,19.4,10.4,68,30.09,10.0,West,5.8,-,N/A,,Mostly Cloudy,270,2013-02-04 05:49:00
12:53 AM,19.0,10.0,68,30.13,10.0,West,4.6,-,N/A,,Mostly Cloudy,270,2013-02-04 05:53:00
1:53 AM,18.0,10.9,74,30.13,8.0,WSW,3.5,-,N/A,,Overcast,240,2013-02-04 06:53:00
2:53 AM,14.0,10.0,84,30.13,7.0,Calm,Calm,-,N/A,,Clear,0,2013-02-04 07:53:00
3:53 AM,10.9,8.1,88,30.13,6.0,SW,3.5,-,N/A,,Mostly Cloudy,220,2013-02-04 08:53:00
5:53 AM,15.1,10.9,84,30.11,7.0,SW,5.8,-,N/A,,Clear,220,2013-02-04 10:53:00
6:53 AM,15.1,10.0,80,30.11,7.0,SW,4.6,-,N/A,,Scattered Clouds,220,2013-02-04 11:53:00
7:53 AM,16.0,12.0,84,30.09,5.0,South,3.5,-,N/A,,Overcast,180,2013-02-04 12:53:00
8:53 AM,19.0,14.0,81,30.07,6.0,SE,5.8,-,N/A,,Haze,140,2013-02-04 13:53:00
9:53 AM,23.0,15.1,72,30.04,8.0,SSE,3.5,-,N/A,,Overcast,160,2013-02-04 14:53:00
10:53 AM,25.0,14.0,63,30.02,10.0,South,6.9,-,N/A,,Overcast,190,2013-02-04 15:53:00
11:53 AM,27.0,15.1,61,30.00,10.0,SSW,6.9,-,N/A,,Overcast,200,2013-02-04 16:53:00
12:53 PM,28.0,14.0,56,29.96,10.0,South,9.2,-,N/A,,Overcast,180,2013-02-04 17:53:00
1:42 PM,28.4,17.6,64,29.91,2.0,South,6.9,-,0.00,Snow,Light Snow,170,2013-02-04 18:42:00
1:50 PM,28.4,17.6,64,29.91,1.2,SSE,5.8,-,0.00,Snow,Light Snow,160,2013-02-04 18:50:00
1:53 PM,28.0,19.0,69,29.94,1.2,South,5.8,-,0.00,Snow,Light Snow,170,2013-02-04 18:53:00
1:59 PM,26.6,19.4,74,29.89,0.8,SSE,6.9,-,0.00,Snow,Light Snow,160,2013-02-04 18:59:00
2:53 PM,27.0,23.0,85,29.90,0.5,SSE,4.6,-,0.01,Fog-Snow,Snow,160,2013-02-04 19:53:00
3:53 PM,28.0,24.1,85,29.90,0.5,South,3.5,-,0.02,Fog-Snow,Snow,170,2013-02-04 20:53:00
4:04 PM,28.4,24.8,86,29.86,0.5,SSE,3.5,-,0.01,Fog-Snow,Snow,160,2013-02-04 21:04:00
4:25 PM,28.4,24.8,86,29.86,0.2,South,3.5,-,0.02,Fog-Snow,Snow,170,2013-02-04 21:25:00
4:45 PM,28.4,26.6,93,29.86,0.2,South,3.5,-,0.04,Fog-Snow,Snow,180,2013-02-04 21:45:00
4:50 PM,28.4,26.6,93,29.86,0.2,Calm,Calm,-,0.05,Fog-Snow,Snow,0,2013-02-04 21:50:00
4:53 PM,28.0,26.1,92,29.89,0.2,South,3.5,-,0.05,Fog-Snow,Snow,170,2013-02-04 21:53:00
5:19 PM,28.4,24.8,86,29.85,0.8,SSE,4.6,-,0.01,Snow,Light Snow,150,2013-02-04 22:19:00
5:28 PM,28.4,24.8,86,29.85,1.0,SE,3.5,-,0.01,Snow,Light Snow,140,2013-02-04 22:28:00
5:33 PM,28.4,24.8,86,29.85,1.2,SE,4.6,-,0.01,Snow,Light Snow,140,2013-02-04 22:33:00
5:42 PM,28.4,24.8,86,29.85,1.0,Calm,Calm,-,0.01,Snow,Light Snow,0,2013-02-04 22:42:00
5:53 PM,28.0,25.0,88,29.89,1.0,Calm,Calm,-,0.01,Snow,Light Snow,0,2013-02-04 22:53:00
6:07 PM,28.4,24.8,86,29.86,1.8,Calm,Calm,-,0.00,Snow,Light Snow,0,2013-02-04 23:07:00
6:11 PM,28.4,24.8,86,29.86,2.5,Calm,Calm,-,0.00,Snow,Light Snow,0,2013-02-04 23:11:00
6:20 PM,28.4,24.8,86,29.86,3.0,Calm,Calm,-,0.00,Snow,Light Snow,0,2013-02-04 23:20:00
6:29 PM,28.4,24.8,86,29.86,2.5,Calm,Calm,-,0.00,Snow,Light Snow,0,2013-02-04 23:29:00
6:36 PM,28.4,26.6,93,29.86,4.0,Calm,Calm,-,0.00,Snow,Light Snow,0,2013-02-04 23:36:00
6:53 PM,28.0,25.0,88,29.90,5.0,Calm,Calm,-,0.00,,Overcast,0,2013-02-04 23:53:00
7:43 PM,28.4,26.6,93,29.86,3.0,South,4.6,-,N/A,,Overcast,170,2013-02-05 00:43:00
7:53 PM,28.0,26.1,92,29.89,3.0,SSE,4.6,-,N/A,,Overcast,160,2013-02-05 00:53:00
8:51 PM,30.2,28.4,93,29.84,4.0,South,4.6,-,N/A,,Overcast,180,2013-02-05 01:51:00
8:53 PM,30.0,28.0,92,29.87,4.0,South,4.6,-,N/A,,Overcast,180,2013-02-05 01:53:00
9:53 PM,30.9,28.0,89,29.89,5.0,Calm,Calm,-,N/A,,Overcast,0,2013-02-05 02:53:00
10:19 PM,30.2,28.4,93,29.86,5.0,Calm,Calm,-,N/A,,Overcast,0,2013-02-05 03:19:00
10:53 PM,30.9,28.9,92,29.89,5.0,Calm,Calm,-,0.01,,Overcast,0,2013-02-05 03:53:00
11:10 PM,30.2,28.4,93,29.86,5.0,Calm,Calm,-,N/A,,Overcast,0,2013-02-05 04:10:00
11:24 PM,30.2,28.4,93,29.86,4.0,Calm,Calm,-,N/A,,Overcast,0,2013-02-05 04:24:00
11:53 PM,30.9,28.9,92,29.88,3.0,Calm,Calm,-,N/A,,Overcast,0,2013-02-05 04:53:00